Вернуться в каталог

SL-16 DEB

АктивенLEO
NORAD 22453·DEBRIS·🇷🇺 Russia

Запущен Dec 25, 1992 с Baikonur Cosmodrome

Loading…

Ближайшие Пролёты (ближайшие 24 часа)

TLE

СвежийSource: Space-Track

Эпоха: Sep 14, 2026, 04:01 UTC

1 22453U 92093ES  26257.16771837  .00000375  00000-0  30872-3 0  9999
2 22453  70.8049 314.2198 0169280 320.9472  67.8294 13.89223482699492

Отслеживайте SL-16 DEB в реальном времени с AllMySat

Download on the App Store